Lid_Strength_Index
5 5 5 5 6 7 7 9 12 7 9 12 16 15 13 11 11 10 10 12 12 13 13 14 15 15 13 10 10 12 13 15 15 13 12 11 13 14 15 16 17 18 17 17
5 5 5 6 6 7 7 10 10 7 9 15 15 13 11 9 10 10 11 11 12 12 13 15 13 13 10 10 10 11 11 15 16 14 14 11 12 12 15 16 17 17 17 17
6 5 5 5 6 6 8 10 12 11 10 12 13 12 11 10 7 8 9 10 11 13 14 13 13 12 10 9 9 4 8 15 15 16 15 13 13 11 12 14 17 17 16 15
6 6 5 5 6 6 7 10 11 11 12 11 12 11 11 11 10 8 9 11 11 13 14 14 14 13 12 9 5 10 12 15 14 14 12 11 12 11 10 14 14 14 14 14
6 6 5 5 5 6 8 10 10 9 11 11 11 12 11 10 9 9 9 10 9 11 13 12 13 13 13 12 10 10 12 14 13 14 12 11 11 9 10 10 11 13 13 14
5 5 5 5 5 6 7 7 7 8 10 11 12 11 10 9 9 8 8 9 10 11 11 11 12 11 11 11 11 12 13 13 14 16 12 12 13 11 12 12 11 11 14 12
4 5 5 4 5 6 5 4 5 8 11 10 10 9 8 9 9 10 8 8 11 8 8 9 11 11 10 10 12 11 12 12 13 14 13 17 12 9 10 11 11 10 10 10
4 4 4 4 4 4 4 3 4 7 10 9 9 9 9 8 9 9 9 7 8 10 10 12 12 14 13 11 10 11 11 12 13 15 15 13 12 11 11 12 13 9 10 9
3 3 3 3 3 2 3 3 2 6 8 9 7 9 8 10 11 10 8 7 8 11 13 12 14 16 15 14 13 12 11 11 12 14 15 16 12 9 7 8 16 9 8 9
2 2 2 3 3 2 2 2 1 4 8 6 6 9 9 8 9 10 9 8 8 9 13 14 14 14 11 13 14 14 14 14 15 15 15 13 9 7 7 14 13 8 8 8
1 1 1 1 1 1 2 2 1 3 6 6 4 4 7 7 8 11 8 9 10 11 12 12 13 14 12 12 11 11 12 15 15 16 16 16 7 8 11 9 8 7 7 7
1 1 1 1 0 1 0 3 1 1 4 5 3 4 4 4 5 7 8 9 10 10 11 11 11 12 11 13 14 11 12 10 14 14 14 10 8 9 7 6 7 7 7 6
2 2 2 2 1 1 1 2 2 3 5 5 5 6 3 4 4 3 7 8 7 8 8 10 10 12 10 12 12 11 10 9 11 11 10 9 7 6 6 6 6 5 5 6
2 2 2 2 2 2 2 3 2 2 5 9 7 3 6 4 4 3 4 6 5 5 6 8 9 11 9 11 11 10 10 9 11 11 9 8 7 6 6 5 5 5 5 5
2 3 3 3 3 3 3 3 4 3 5 9 7 4 4 5 4 3 3 4 5 6 8 9 10 9 10 11 12 12 10 11 11 12 8 8 8 6 5 6 6 5 5 5
2 3 3 3 3 3 4 7 4 3 3 7 10 5 5 5 4 4 4 4 5 6 8 9 9 8 10 12 14 10 9 9 8 8 6 7 6 6 5 5 5 5 5 5
3 3 4 4 4 4 7 8 5 4 3 8 10 9 5 4 4 4 5 4 6 6 8 9 10 9 10 13 13 10 8 7 6 6 6 7 7 7 6 5 5 4 4 4
2 3 4 4 4 5 6 4 4 3 6 6 10 10 8 5 7 8 5 7 7 7 8 9 10 10 12 14 11 10 7 6 6 6 7 7 7 6 5 4 4 5 5 5
3 3 3 4 5 7 6 2 2 3 5 9 9 11 12 5 7 7 7 7 10 8 10 10 10 12 13 11 11 9 7 7 8 8 7 6 6 6 5 5 5 5 5 5
3 3 4 7 5 1 2 4 6 6 6 6 9 7 10 7 8 9 9 8 10 12 10 10 11 11 10 9 9 6 7 8 7 8 8 8 8 7 6 6 5 4 5 5
5 7 8 6 1 4 6 8 9 8 10 7 7 7 9 5 9 10 8 10 9 12 10 11 12 13 10 8 9 9 7 7 6 6 6 6 6 7 6 6 5 5 5 4
5 6 5 5 7 7 9 10 9 9 11 8 9 8 7 7 5 9 8 10 10 13 8 11 13 10 9 8 7 7 7 6 7 6 7 6 6 6 5 5 4 4 4 4
4 6 7 8 8 11 12 14 12 11 8 7 8 9 7 7 6 8 9 11 12 8 12 13 11 9 8 8 7 7 6 6 6 6 6 6 6 5 5 5 4 4 4 4
6 8 12 10 11 11 11 10 10 7 7 7 7 8 9 8 9 9 12 10 10 14 16 14 10 8 9 8 7 6 7 6 6 6 6 6 6 5 4 4 4 4 5 5
8 8 12 10 8 7 7 6 7 7 7 7 8 8 8 9 10 10 11 13 15 13 14 10 8 7 9 8 8 8 7 7 7 6 7 7 5 5 6 5 5 5 5 5
7 8 9 8 9 9 8 8 8 7 7 7 8 10 11 11 11 12 13 14 15 12 9 7 6 8 8 7 8 7 7 7 8 8 7 5 6 6 6 5 5 6 6 5
8 8 7 8 8 8 8 8 7 6 7 10 10 12 12 10 13 12 11 12 10 9 9 6 6 7 7 6 6 6 6 8 8 7 6 6 6 6 6 7 6 5 5 5